Location: Roc des P�zouls
(43.9667°N, 3.5500°E)
Time: 23:15:05
(UTC+00:00)

Cosmos 1869 - Pass Details

Date: 14 November 2019
Orbit: 529 x 554 km, 82.5° (Epoch: 15 December)

Event Time Altitude Azimuth Distance (km) Brightness Sun altitude
Exits shadow 04:33:51 24° 2° (N) 1,129 4.8 -22.5°
Maximum altitude 04:36:05 68° 81° (E) 576 3.5 -22.1°
Drops below altitude 10° 04:39:58 10° 164° (SSE) 1,775 6.1 -21.4°
Sets 04:42:06 0° 167° (SSE) 2,663 7.1 -21.0°
